MDT,Max TemperatureF,Mean TemperatureF,Min TemperatureF,Max Dew PointF,MeanDew PointF,Min DewpointF,Max Humidity, Mean Humidity, Min Humidity, Max Sea Level PressureIn, Mean Sea Level PressureIn, Min Sea Level PressureIn, Max VisibilityMiles, Mean VisibilityMiles, Min VisibilityMiles, Max Wind SpeedMPH, Mean Wind SpeedMPH, Max Gust SpeedMPH,PrecipitationIn, CloudCover, Events, WindDirDegrees
2012-3-1,42,32,23,25,18,9,100,54,26,29.79,29.70,29.65,10,10,0,18,9,77,0.00,4,,280
2012-3-2,33,25,17,21,11,1,93,56,34,30.01,29.91,29.79,10,10,7,22,6,29,0.00,3,,346
2012-3-3,48,32,17,18,11,7,79,45,22,30.03,29.98,29.90,10,10,10,21,8,26,0.00,1,,147
2012-3-4,62,45,28,25,19,16,69,39,16,30.13,30.06,29.92,10,10,10,10,6,,0.00,0,,158
2012-3-5,66,46,26,25,18,10,80,38,13,30.12,29.96,29.80,10,10,10,21,7,29,0.00,0,,238
2012-3-6,71,50,30,21,12,3,48,23,10,29.78,29.58,29.41,10,10,10,32,11,44,0.00,0,,210
2012-3-7,39,32,24,28,22,19,86,69,56,30.19,29.90,29.64,10,10,5,21,11,26,0.00,6,,10
2012-3-8,50,36,21,19,14,9,86,48,22,30.49,30.41,30.25,10,10,10,12,4,,0.00,1,,171
2012-3-9,60,40,21,21,14,7,86,40,13,30.47,30.36,30.19,10,10,10,12,4,,0.00,0,,134
2012-3-10,69,48,26,36,20,9,81,39,15,30.14,29.98,29.84,10,10,10,16,5,23,0.00,0,,115
2012-3-11,64,50,37,37,26,9,93,51,14,29.84,29.71,29.61,10,10,10,18,8,,0.00,1,,353
2012-3-12,66,52,39,23,17,12,42,28,15,29.94,29.83,29.67,10,10,10,15,6,24,0.00,0,,107
2012-3-13,71,52,33,27,16,9,57,28,10,29.94,29.87,29.77,10,10,10,22,6,30,0.00,0,,204
2012-3-14,73,56,39,18,12,7,39,18,10,30.02,29.93,29.84,10,10,10,21,10,24,0.00,0,,211
2012-3-15,71,56,41,21,19,14,45,24,15,30.15,30.07,29.99,10,10,10,13,6,20,0.00,1,,140
2012-3-16,73,53,33,28,23,16,75,35,13,30.00,29.89,29.76,10,10,10,18,6,,0.00,0,,302
2012-3-17,75,55,35,30,20,16,70,31,11,29.78,29.71,29.54,10,10,10,15,5,18,0.00,0,,92
2012-3-18,71,52,33,28,21,16,60,32,14,29.58,29.44,29.25,10,10,3,38,9,46,0.00,1,,168
2012-3-19,48,40,32,18,6,0,38,23,13,29.61,29.53,29.42,10,10,10,26,11,34,0.00,2,,260
2012-3-20,55,44,32,21,12,5,60,33,15,30.01,29.89,29.68,10,10,10,17,10,23,0.00,1,,16
2012-3-21,66,47,28,25,17,9,55,32,18,30.03,29.98,29.92,10,10,10,22,7,28,0.00,0,,4
2012-3-22,71,52,33,30,23,19,60,38,14,30.02,29.96,29.86,10,10,10,22,7,28,0.00,0,,55
2012-3-23,77,54,32,34,27,23,87,46,13,30.03,29.98,29.90,10,10,10,13,4,16,0.00,0,,115
2012-3-24,75,57,39,32,26,19,57,32,18,30.10,30.06,30.00,10,10,9,18,8,28,0.00,0,,64
2012-3-25,69,54,39,41,37,34,87,59,33,30.16,30.05,29.93,10,10,10,9,4,,0.00,0,,95
2012-3-26,80,60,41,45,33,12,82,55,10,29.90,29.71,29.45,10,10,3,33,9,45,0.00,5,,330
2012-3-27,71,55,39,25,17,10,39,24,12,30.03,29.94,29.78,10,10,10,23,11,29,655.34,5,,113
2012-3-28,75,55,35,30,24,19,61,37,12,30.03,29.96,29.81,10,10,10,14,7,21,0.00,3,,34
2012-3-29,71,58,44,37,28,19,76,34,15,29.96,29.89,29.83,10,10,10,21,6,29,0.00,0,,59
2012-3-30,77,60,42,28,23,16,50,26,17,29.93,29.88,29.79,10,10,10,15,7,18,0.00,0,,104
2012-3-31,82,64,46,39,29,25,71,29,15,29.94,29.84,29.67,10,10,10,16,7,23,0.00,0,,146